COSMOS 2251 DEB, 34396

Orbit data source: Space-Track

COSMOS 2251 DEB, 34396 is space debris in LEO originally from a launch on Wed, 16 Jun 1993 UTC launched from the Plesetsk Missile And Space Complex (PKMTR). The debris from Iridium 33, an American commercial communications satellite, has been tracked extensively since its accidental collision with the defunct Russian satellite Cosmos 2251 in 2009. This event, occurring at high speed in low Earth orbit (LEO), generated thousands of pieces of space debris, significantly increasing the risk of further collisions. The Iridium 33 debris cloud has impacted space traffic management and orbital debris mitigation strategies, making it a subject of ongoing study in space situational awareness.

Loading next visibility...
Identifier
34396, 1993-036QM
Orbit
LEO
Country
Flag of CISCIS
Related business
Manufacturer
Unknown
Mission
Spacecraft
Bus & Motor
Unknown
Mass
Unknown
Launch date (UTC)
1993-06-16 (33 years ago)
Launch vehicle
Unknown
Launch site
Plesetsk Missile And Space Complex (PKMTR)
Object type
Payload
Rocket body
Debris
Shape & HBR
Unknown shape, 0.1 m
Radar Cross Section
Small (<0.1 m²)

Expand to show TLE details & history
Last TLE update: 8 hours ago

TLE from 8 hours ago
0 COSMOS 2251 DEB
1 34396U 93036QM  26121.31310299  .00015849  00000-0  21756-2 0  9996
2 34396  74.0284 210.4848 0006386 237.2889 179.4875 14.78374571904068
Epoch: 2026-05-01T07:30Z
TLE epoch observation values (Epoch: 2026-05-01T07:30:52.098Z)
Latitude
53.64882°
Longitude
-98.72429°
Altitude
647.397 km
Speed
7.537 km/s
True Right ascension
15h 32m 57s
True Declination
53° 28' 55"
Sunlit
Object was in daylight at epoch
Visualization orbit readout
Latitude
Unknown
Longitude
Unknown
Altitude
Unknown
Speed
Unknown
Apparent Right ascension
Unknown
Apparent Declination
Unknown
Sunlit
N/A
Visualization observer readout
Local Sidereal Time
23:07:29
Azimuth
Unknown
Elevation
Unknown
Doppler factor
Unknown
Orbital elements
Apogee altitude
636.514 km
Perigee altitude
627.561 km
Semi-major axis
7,010.175 km
Eccentricity
0.00064
Inclination
74.0284°
RAAN
210.4848°
Arg. of periapsis
237.2889°
True anomaly
179.48815°
Mean anomaly
179.4875°
Eccentric anomaly
179.48783°
Mean motion
3.69786 °/min
Orbital period
97.35 mins
BSTAR
0.0021756
Loading maneuver chart data...
Computing Atmospheric mass density...

Documentation

Showing up to 5 results
|